Date String (YYYY-MM-DD hh:mm:ss) UTC,Instrument flags,Ambient pressure (hPa),Sample flow (lpm),Bypass flow (lpm),Sample temperature (°C),Ambient temperature (°C),ASC tube jacket temperature (°C),LED temperature (°C),Box temperature (°C),Sample RH (%),Span deviation,Mass concentration (μg/m³),Mass concentration (μg/m³),Mass concentration (μg/m³)
DateTimeUTC,F1_M11,P_M11,Q1_M11,Q2_M11,T1_M11,T2_M11,T3_M11,T4_M11,T5_M11,U1_M11,ZSPAN_M11,X0_M11,X2_M11,X1_M11
2022-06-24 13:00:00,,0825.5,5.00,0.00,30.0,28.8,00.0,38.7,31.8,17.3,0000.0,0008.58,0002.11,0001.26
2022-06-24 13:01:00,,0825.4,4.99,0.00,29.9,28.0,00.0,38.6,31.6,17.1,0000.0,0008.56,0002.17,0001.28
2022-06-24 13:02:00,,0825.4,5.01,0.00,29.8,27.5,00.0,38.6,31.5,17.2,0000.0,0008.55,0002.18,0001.29
2022-06-24 13:03:00,,0825.4,5.01,0.00,29.8,27.5,00.0,38.5,31.4,17.1,0000.0,0008.54,0002.19,0001.31
2022-06-24 13:04:00,,0825.4,5.00,0.00,29.7,27.5,00.0,38.5,31.4,17.2,0000.0,0008.47,0002.17,0001.32
2022-06-24 13:05:00,,0825.4,5.00,0.00,29.7,27.6,00.0,38.5,31.4,17.4,0000.0,0008.50,0002.16,0001.33
2022-06-24 13:06:00,,0825.5,4.99,0.00,29.7,27.8,00.0,38.5,31.4,17.8,0000.0,0008.42,0002.15,0001.34
2022-06-24 13:07:00,,0825.4,5.00,0.00,29.6,27.9,00.0,38.5,31.4,17.9,0000.0,0007.90,0002.16,0001.34
2022-06-24 13:08:00,,0825.4,5.00,0.00,29.6,28.0,00.0,38.5,31.4,17.5,0000.0,0007.30,0002.21,0001.34
2022-06-24 13:09:00,,0825.4,4.99,0.00,29.6,28.2,00.0,38.5,31.5,17.4,0000.0,0005.76,0002.21,0001.35
2022-06-24 13:10:00,,0825.4,5.00,0.00,29.6,28.3,00.0,38.5,31.5,17.4,0000.0,0005.08,0002.14,0001.35
2022-06-24 13:11:00,,0825.4,5.01,0.00,29.7,28.4,00.0,38.5,31.5,17.5,0000.0,0004.76,0002.08,0001.36
2022-06-24 13:12:00,,0825.4,5.00,0.00,29.7,28.5,00.0,38.5,31.5,17.6,0000.0,0004.62,0002.06,0001.37
2022-06-24 13:13:00,,0825.4,4.99,0.00,29.7,28.5,00.0,38.5,31.6,17.7,0000.0,0004.59,0002.05,0001.37
2022-06-24 13:14:00,,0825.4,5.01,0.00,29.7,28.6,00.0,38.5,31.6,17.7,0000.0,0004.59,0002.04,0001.38
2022-06-24 13:15:00,,0825.4,4.98,0.00,29.7,28.7,00.0,38.5,31.6,17.5,0000.0,0004.74,0002.05,0001.38
2022-06-24 13:16:00,,0825.4,5.01,0.00,29.8,28.7,00.0,38.5,31.7,17.7,0000.0,0004.81,0002.05,0001.38
2022-06-24 13:17:00,,0825.4,5.00,0.00,29.8,28.8,00.0,38.5,31.7,18.3,0000.0,0005.43,0002.07,0001.37
2022-06-24 13:18:00,,0825.4,5.00,0.00,29.8,28.8,00.0,38.6,31.7,18.3,0000.0,0005.26,0002.08,0001.38
2022-06-24 13:19:00,,0825.4,4.99,0.00,29.8,28.9,00.0,38.6,31.8,18.2,0000.0,0005.18,0002.06,0001.37
2022-06-24 13:20:00,,0825.5,5.00,0.00,29.8,28.9,00.0,38.6,31.7,17.8,0000.0,0005.41,0002.09,0001.38
2022-06-24 13:21:00,,0825.4,5.01,0.00,29.9,29.0,00.0,38.6,31.8,17.5,0000.0,0005.68,0002.10,0001.37
2022-06-24 13:22:00,,0825.5,5.01,0.00,29.9,29.0,00.0,38.6,31.8,17.7,0000.0,0005.23,0002.13,0001.36
2022-06-24 13:23:00,,0825.4,5.00,0.00,29.9,28.3,00.0,38.6,31.7,18.2,0000.0,0005.22,0002.10,0001.35
2022-06-24 13:24:00,,0825.4,5.00,0.00,29.8,27.6,00.0,38.5,31.5,18.0,0000.0,0005.23,0002.11,0001.34
2022-06-24 13:25:00,,0825.5,4.99,0.00,29.7,27.4,00.0,38.5,31.4,18.6,0000.0,0005.25,0002.14,0001.32
2022-06-24 13:26:00,,0825.5,4.99,0.00,29.7,27.5,00.0,38.5,31.4,18.3,0000.0,0005.28,0002.16,0001.33
2022-06-24 13:27:00,,0825.5,5.00,0.00,29.6,27.6,00.0,38.5,31.3,18.5,0000.0,0005.08,0002.15,0001.33
2022-06-24 13:28:00,,0825.5,5.00,0.00,29.6,27.7,00.0,38.5,31.3,18.1,0000.0,0004.62,0002.15,0001.34
2022-06-24 13:29:00,,0825.5,5.00,0.00,29.6,27.8,00.0,38.5,31.4,18.6,0000.0,0004.46,0002.11,0001.35
2022-06-24 13:30:00,,0825.5,4.99,0.00,29.6,28.0,00.0,38.5,31.4,18.1,0000.0,0004.33,0002.09,0001.36
2022-06-24 13:31:00,,0825.5,5.00,0.00,29.6,28.1,00.0,38.4,31.4,18.4,0000.0,0004.01,0002.02,0001.36
2022-06-24 13:32:00,,0825.5,5.00,0.00,29.6,28.2,00.0,38.5,31.5,18.6,0000.0,0003.67,0002.01,0001.37
2022-06-24 13:33:00,,0825.5,5.00,0.00,29.6,28.3,00.0,38.5,31.5,19.0,0000.0,0003.56,0002.00,0001.38
2022-06-24 13:34:00,,0825.5,4.99,0.00,29.6,28.4,00.0,38.5,31.5,18.6,0000.0,0003.77,0002.00,0001.38
2022-06-24 13:35:00,,0825.5,5.00,0.00,29.6,28.5,00.0,38.5,31.5,18.3,0000.0,0004.22,0002.01,0001.39
2022-06-24 13:36:00,,0825.5,5.00,0.00,29.7,28.6,00.0,38.5,31.6,18.2,0000.0,0004.10,0001.97,0001.40
2022-06-24 13:37:00,,0825.5,5.01,0.00,29.7,28.6,00.0,38.5,31.6,18.0,0000.0,0004.00,0001.94,0001.40
2022-06-24 13:38:00,,0825.5,5.00,0.00,29.7,28.7,00.0,38.5,31.6,18.3,0000.0,0004.01,0001.94,0001.39
2022-06-24 13:39:00,,0825.5,4.99,0.00,29.7,28.7,00.0,38.5,31.7,18.3,0000.0,0003.80,0001.90,0001.39
2022-06-24 13:40:00,,0825.5,5.00,0.00,29.8,28.8,00.0,38.5,31.7,17.8,0000.0,0003.84,0001.92,0001.39
2022-06-24 13:41:00,,0825.5,5.00,0.00,29.8,28.8,00.0,38.5,31.7,18.1,0000.0,0004.41,0001.96,0001.38
2022-06-24 13:42:00,,0825.5,5.01,0.00,29.8,28.9,00.0,38.6,31.7,18.7,0000.0,0004.72,0002.00,0001.38
2022-06-24 13:43:00,,0825.5,5.00,0.00,29.8,28.5,00.0,38.5,31.7,18.7,0000.0,0004.78,0002.00,0001.37
2022-06-24 13:44:00,,0825.5,5.00,0.00,29.7,27.6,00.0,38.5,31.4,18.4,0000.0,0004.76,0002.00,0001.36
2022-06-24 13:45:00,,0825.4,5.00,0.00,29.7,27.3,00.0,38.4,31.3,18.8,0000.0,0004.55,0001.99,0001.36
2022-06-24 13:46:00,,0825.5,5.00,0.00,29.6,27.3,00.0,38.4,31.3,18.3,0000.0,0003.99,0001.99,0001.36
2022-06-24 13:47:00,,0825.5,5.01,0.00,29.5,27.3,00.0,38.4,31.2,18.6,0000.0,0004.00,0002.00,0001.37
2022-06-24 13:48:00,,0825.5,5.00,0.00,29.5,27.5,00.0,38.4,31.2,18.5,0000.0,0004.29,0002.02,0001.37
2022-06-24 13:49:00,,0825.5,5.00,0.00,29.5,27.6,00.0,38.4,31.3,18.8,0000.0,0004.70,0002.00,0001.37
2022-06-24 13:50:00,,0825.5,5.00,0.00,29.5,27.8,00.0,38.4,31.3,18.9,0000.0,0004.91,0002.05,0001.37
2022-06-24 13:51:00,,0825.5,5.00,0.00,29.5,27.9,00.0,38.4,31.3,19.3,0000.0,0004.91,0002.07,0001.37
2022-06-24 13:52:00,,0825.5,5.00,0.00,29.5,28.1,00.0,38.4,31.3,18.6,0000.0,0004.58,0002.10,0001.38
2022-06-24 13:53:00,,0825.6,5.00,0.00,29.5,28.2,00.0,38.4,31.4,18.4,0000.0,0004.38,0002.09,0001.38
2022-06-24 13:54:00,,0825.6,5.00,0.00,29.5,28.3,00.0,38.4,31.4,18.5,0000.0,0004.47,0002.16,0001.38
2022-06-24 13:55:00,,0825.6,4.99,0.00,29.5,28.4,00.0,38.4,31.4,18.2,0000.0,0004.62,0002.20,0001.39
2022-06-24 13:56:00,,0825.6,5.00,0.00,29.6,28.5,00.0,38.4,31.5,18.4,0000.0,0004.59,0002.20,0001.39
2022-06-24 13:57:00,,0825.6,5.00,0.00,29.6,28.5,00.0,38.4,31.5,18.2,0000.0,0004.57,0002.19,0001.40
2022-06-24 13:58:00,,0825.6,5.01,0.00,29.6,28.6,00.0,38.4,31.5,18.2,0000.0,0005.85,0002.26,0001.39
2022-06-24 13:59:00,,0825.6,5.00,0.00,29.7,28.7,00.0,38.4,31.6,18.4,0000.0,0006.41,0002.31,0001.40
